Location: Bavegemberg
(50.9500°N, 3.8833°E)
Time: 02:49:52
(UTC+00:00)

Meteor 1-4 Rocket - Pass Details

Date: 23 May 2024
Orbit: 357 x 378 km, 81.2° (Epoch: 21 June)

Event Time Altitude Azimuth Distance (km) Brightness Sun altitude
Rises 23:26:56 0° 86° (E) 2,192 5.9 -18.3°
Enters shadow 00:22:40 -71° 195° (SSW) 12,431 9.7 -17.8°
Maximum altitude 00:59:29 35° 96° (E) 610 3.1 -16.4°
